Regional Weather Roundup
Issued by NWS

Home | Current Version | Previous Version | Graphics & Text | Print | Product List | Glossary On
Versions: 1 2 3 4 5 6 7 8 9 10 11 12 13 14 15 16 17 18 19 20 21 22 23 24 25 26 27 28 29 30 31 32 33 34 35 36 37 38 39 40 41 42 43 44 45 46 47 48 49 50
924
ASUS43 KMPX 191401
RWRMN
WEATHER ROUNDUP FOR MINNESOTA
NATIONAL WEATHER SERVICE TWIN CITIES/CHANHASSEN MN
900 AM CDT THU OCT 19 2017


NOTE: "FAIR" INDICATES FEW OR NO CLOUDS BELOW 12,000 FEET WITH NO
SIGNIFICANT WEATHER AND/OR OBSTRUCTIONS TO VISIBILITY. N/A MEANS
CURRENT SKY AND/OR WEATHER CONDITIONS ARE NOT AVAILABLE.

MNZ060>063-068>070-191500-
   Twin Cities Metro

CITY           SKY/WX    TMP DP  RH WIND       PRES   REMARKS
TWIN CITIES    CLOUDY    46  36  68 S5        30.07R
ST PAUL        CLOUDY    45  38  76 SE7       30.08R
CRYSTAL        CLOUDY    46  33  60 S8        30.05R
BLAINE         PTSUNNY   46  37  71 S9        30.04R
LAKEVILLE      CLOUDY    45  36  70 S5        30.08R
EDEN PRAIRIE   CLOUDY    44  37  76 SW5       30.06R
SOUTH ST PAUL  CLOUDY    44  35  70 CALM      30.07R
LAKE ELMO      FAIR      43  36  75 S3        30.07S
$$
MNZ001>005-007-008-013>017-022>024-027-028-191500-
   Northwest Minnesota

CITY           SKY/WX    TMP DP  RH WIND       PRES   REMARKS
BEMIDJI        SUNNY     39  31  71 CALM      29.93S
HALLOCK        CLOUDY    37  25  60 SE9       29.85S
ROSEAU         CLOUDY    37  28  70 S5        29.88F
WARROAD        CLOUDY    37  28  70 S5        29.89F
CROOKSTON      CLOUDY    41  28  60 S8        29.90R
FOSSTON        CLOUDY    43  28  56 SE7       29.92S
DETROIT LAKES  SUNNY     43  36  75 SE7       29.94F
MOORHEAD       SUNNY     43  32  65 SE14      29.90F
PARK RAPIDS    CLOUDY    39  31  72 SE3       29.96S
MAHNOMEN       FAIR      44  29  57 SE7       29.91F
$$
MNZ006-009>011-018-025>026-191500-
   North Central Minnesota

CITY           SKY/WX    TMP DP  RH WIND       PRES   REMARKS
BAUDETTE       MOSUNNY   39  26  59 CALM      29.91R
FLAG ISLAND    CLOUDY    41  21  45 SW5       29.87R
INTL FALLS     PTSUNNY   40  23  50 SW6       29.92R
WASKISH        CLOUDY    43  32  65 CALM      29.93S
BIG FORK       CLOUDY    39  27  60 CALM      29.94S
LONGVILLE      MOSUNNY   36  32  87 S3        29.97R
GRAND RAPIDS   CLOUDY    43  29  57 S6        29.99R
CRANE LAKE     MOSUNNY   43  19  39 SW5       29.94S
ORR            MOSUNNY   41  21  45 W3        29.92R
COOK           MOSUNNY   43  25  49 SW3       29.95R
WALKER         FAIR      42  29  58 S5        29.96R
$$
MNZ012-019>021-037-191500-
   Northeast Minnesota

CITY           SKY/WX    TMP DP  RH WIND       PRES   REMARKS
DULUTH         CLOUDY    44  28  53 W13       29.99R
ELY            MOSUNNY   45  21  39 W8        29.94R
HIBBING        MOSUNNY   39  27  62 CALM      29.96R
EVELETH        MOSUNNY   40  22  48 CALM      29.97R
DULUTH HARBOR  MOSUNNY   46  34  61 SW10      30.01R
TWO HARBORS    MOSUNNY   45  30  57 SW3       29.96R
SILVER BAY     MOSUNNY   46  28  49 CALM      29.94R
GRAND MARAIS     N/A     44  34  67 W8        29.92R
G MARAIS ARPRT MOSUNNY   41  19  42 SW3       29.90R
$$
MNZ029>031-032-039>041-046>048-054>057-064-191500-
   West Central Minnesota

CITY           SKY/WX    TMP DP  RH WIND       PRES   REMARKS
FERGUS FALLS   SUNNY     45  32  61 S10       29.96S
WHEATON        CLOUDY    39  34  81 SE9       29.94F
MORRIS         CLOUDY    41  34  75 SE8       29.96S
ALEXANDRIA     CLOUDY    51  29  42 S12       29.99S
ELBOW LAKE     FAIR      44  32  64 SE10      29.96F
WADENA         CLOUDY    37  30  75 SE5       29.97S
GLENWOOD       CLOUDY    43  34  70 S10       30.00R
APPLETON       CLOUDY    46  32  57 SE7       29.97F
BENSON         CLOUDY    43  34  70 S9        30.00S
ORTONVILLE     CLOUDY    45  32  61 NE6       29.95S
MADISON        CLOUDY    46  36  66 S7        29.97F
WILLMAR        FAIR      43  36  75 SE5       30.03S
$$
MNZ033>034-036-042>043-049>051-058-059-191500-
   Central Minnesota

CITY           SKY/WX    TMP DP  RH WIND       PRES   REMARKS
ST CLOUD       CLOUDY    40  36  86 S5        30.03R
SAUK CENTRE    FAIR      39  33  81 SE5       30.01R
PAYNESVILLE    CLOUDY    45  33  62 S7        30.04R
AITKIN         CLOUDY    41  30  65 CALM      29.98R
PINE RIVER     CLOUDY    30  28  93 CALM      30.02R
BRAINERD       CLOUDY    39  32  76 CALM      30.01R
STAPLES        CLOUDY    37  30  75 S3        29.98S
LONG PRAIRIE   FAIR      37  32  81 SE3       30.00S
LITTLE FALLS   CLOUDY    39  30  70 CALM      30.01S
LITCHFIELD     CLOUDY    46  36  66 CALM      30.05R
BUFFALO        MOSUNNY   44  33  67 S5        30.06R
MAPLE LAKE     CLOUDY    45  37  73 S3        30.06R
HUTCHINSON     CLOUDY    43  37  78 CALM      30.06R
$$
MNZ037-044-045-052-053-191500-
   East Central Minnesota

CITY           SKY/WX    TMP DP  RH WIND       PRES   REMARKS
PRINCETON      CLOUDY    41  37  87 CALM      30.04R
MORA           CLOUDY    36  34  93 CALM      30.04S
CAMBRIDGE      CLOUDY    45  34  65 CALM      30.04R
RUSH CITY      CLOUDY    41  33  75 CALM      30.04R
MOOSE LAKE     CLOUDY    36  30  80 CALM      30.00R
HINCKLEY       FAIR      37  36  93 CALM      30.03R
CLOQUET        CLOUDY    45  25  45 CALM      30.00R
MCGREGOR       CLOUDY    43  32  65 S5        30.00S
$$
MNZ071>073-080-081-089-090-097-098-191500-
   Southwest Minnesota

CITY           SKY/WX    TMP DP  RH WIND       PRES   REMARKS
MONTEVIDEO     CLOUDY    46  34  61 S7        30.00S
GRANITE FALLS  CLOUDY    47  36  65 SE8       30.03R
CANBY          CLOUDY    55  30  39 S12G17    29.98F
MARSHALL       CLOUDY    51  31  46 S14       30.01S
REDWOOD FALLS  CLOUDY    45  34  65 S8        30.03S
OLIVIA         MOSUNNY   43  36  75 SE7       30.03R
PIPESTONE      CLOUDY    46  28  49 S8        30.04R
WORTHINGTON    CLOUDY    48  32  53 S6        30.08R
JACKSON        CLOUDY    46  32  57 S10       30.08R
TRACY          CLOUDY    53  32  45 S14       30.03S
SLAYTON        CLOUDY    45  30  54 S3        30.06R
$$
MNZ065>067-074>077-082>085-091>093-191500-
   South Central Minnesota

CITY           SKY/WX    TMP DP  RH WIND       PRES   REMARKS
MANKATO        CLOUDY    44  34  67 S6        30.09R
NEW ULM          N/A     43  34  70 S6        30.06S
ST JAMES       CLOUDY    45  34  65 S6        30.08R
FAIRMONT       CLOUDY    44  37  76 S8        30.08F
GLENCOE        CLOUDY    45  35  69 S6        30.07R
FARIBAULT      CLOUDY    45  36  70 S7        30.09R
OWATONNA       CLOUDY    46  34  61 SE10      30.09S
WASECA         CLOUDY    43  36  75 SE5       30.10R
$$
MNZ078>079-086>088-094>096-191500-
   Southeast Minnesota

CITY           SKY/WX    TMP DP  RH WIND       PRES   REMARKS
ROCHESTER      CLOUDY    46  37  71 S7        30.11R
RED WING       CLOUDY    43  36  75 CALM      30.08R
STANTON        CLOUDY    44  37  77 S3        30.08R
DODGE CENTER   CLOUDY    46  36  66 S5        30.10R
WINONA         CLOUDY    43  37  81 CALM      30.13R
AUSTIN         CLOUDY    45  36  70 S5        30.11S
PRESTON        CLOUDY    45  34  65 S6        30.13R
$$
ABBREVIATIONS USED IN REMARKS
   TC - TEMPERATURES IN CELSIUS
  WCI - WIND CHILL INDEX
   HX - HEAT INDEX
  VSB - VISIBILITY
$$




USA.gov is the U.S. government's official web portal to all federal, state and local government web resources and services.